www.pogodaiklimat.ru

Погода и климат >> Архив погоды >> Турция >> Finike


ПОГОДА в Finike

  • Прогноз погоды в Finike
  • Монитор погоды в Finike
  • Климат города

АРХИВ ПОГОДЫ в Finike

Время (UTC), дата Ветер
(напр.,м/с)
 
Видим.   Явления Облачность Т
(С)
Тd
(С)
f
(%)
Тe
(С)
Тes
(С)
Комфортность P
(гПа)
Po
(гПа)
Тmin
(С)
Tmax
(С)
R
(мм)
R24
(мм)
S
(см)
16 9.08 С 1 20 км ясно +31.1 +24.1 66 +43 +43 опасность
перегрева
1006.7 1006.5
17 9.08 СВ 1 20 км ясно +30.3 +22.0 61 +39 +39 очень
душно
1006.7 1006.5
18 9.08 С 1
{5}
20 км ясно +29.9 +23.0 67 +40 +40 очень
душно
1007.1 1006.9 +33.3
06 10.08 СЗ 1
{2}
20 км ясно +30.0 +19.7 54 +36 +44 очень
душно
1006.4 1006.2 +25.2
07 10.08 ЮВ 1 20 км ясно +29.8 +23.1 67 +40 +53 опасность
солнечного
удара
1006.6 1006.4
08 10.08 Ю 2 20 км ясно +30.7 +25.2 73 +45 +60 опасность
перегрева
1006.5 1006.3
09 10.08 Ю 2
{4}
20 км ясно +31.5 +24.7 67 +44 +64 опасность
перегрева
1006.1 1005.9
10 10.08 Ю 2 20 км ясно +31.7 +25.2 69 +46 +65 опасность
перегрева
1005.9 1005.7
11 10.08 Ю 4 20 км ясно +30.9 +24.9 70 +44 +57 опасность
перегрева
1005.6 1005.4
12 10.08 Ю 4
{6}
20 км ясно +31.0 +25.4 72 +45 +56 опасность
перегрева
1005.3 1005.1
13 10.08 ЮЗ 2 20 км ясно +32.2 +25.2 67 +46 +57 опасность
перегрева
1004.8 1004.6
14 10.08 В 1 20 км 1/1 1000 м
[Cu hum]
+31.8 +24.5 65 +44 +51 опасность
перегрева
1004.4 1004.2
15 10.08 С 2
{6}
20 км 1/1 1080 м
[Cu hum]
+32.7 +23.8 60 +44 +47 опасность
перегрева
1004.1 1003.9
16 10.08 С 1 20 км 1/1 1000 м
[Cu hum]
+31.2 +24.0 66 +43 +44 опасность
перегрева
1004.1 1003.9
17 10.08 С 1 20 км ясно +30.5 +24.3 70 +43 +43 опасность
перегрева
1004.2 1004.0
18 10.08 С 1
{6}
20 км ясно +29.6 +24.5 74 +42 +42 опасность
перегрева
1004.5 1004.3 +33.2
06 11.08 СВ 1
{2}
20 км 1/1 1080 м
[Cu hum]
+30.1 +24.1 70 +42 +49 опасность
перегрева
1004.3 1004.1 +25.6
07 11.08 ЮВ 1 10 км дымка 1/1 1000 м
[Cu hum]
+30.3 +24.5 71 +43 +54 опасность
перегрева
1004.5 1004.3
08 11.08 ЮВ 1 10 км дымка 1/1 1000 м
[Cu hum]
+31.2 +25.6 72 +46 +62 опасность
перегрева
1004.6 1004.4
09 11.08 Ю 2
{4}
20 км 1/1 1080 м
[Cu hum]
+32.2 +25.4 67 +46 +64 опасность
перегрева
1004.4 1004.2
10 11.08 ЮВ 2 10 км дымка 3/3 1000 м
[Cu hum]
+31.7 +25.9 71 +47 +60 опасность
перегрева
1004.1 1003.9
11 11.08 ЮВ 2 10 км дымка 3/3 1000 м
[Cu med, cong]
+32.1 +26.0 70 +48 +60 опасность
перегрева
1004.2 1004.0
12 11.08 Ю 2
{5}
15 км 3/3 1080 м
[Cu med, cong]
+32.5 +25.7 67 +47 +58 опасность
перегрева
1004.1 1003.9
13 11.08 ЮВ 3 10 км дымка 4/4 1000 м
[Cu med, cong]
+32.0 +26.2 71 +48 +54 опасность
перегрева
1003.9 1003.7
14 11.08 ЮВ 1 10 км дымка 4/4 1000 м
[Cu hum]
+30.9 +26.0 75 +46 +51 опасность
перегрева
1003.9 1003.7
15 11.08 ЮЗ 1
{4}
10 км дымка 4/4 900 м
[Cu hum]
+31.3 +26.0 74 +47 +49 опасность
перегрева
1003.7 1003.5
16 11.08 З 1 10 км дымка 5/5 600 м
[Cu hum]
+30.9 +25.8 74 +46 +46 опасность
перегрева
1003.5 1003.3
17 11.08 ЮВ 1 8000 м дымка 5/5 600 м
[Cu hum]
+30.6 +26.4 78 +47 +47 опасность
перегрева
1003.7 1003.5
18 11.08 В 1
{4}
8000 м дымка 5/5 900 м
[Cu hum]
+30.3 +25.7 76 +45 +45 опасность
перегрева
1004.2 1004.0 +33.1
06 12.08 Ю 1
{2}
8000 м дымка 4/4 900 м
[Cu hum]
+30.9 +26.2 76 +47 +51 опасность
перегрева
1003.8 1003.6 +28.7
07 12.08 ЮВ 2 10 км дымка 3/3 600 м
[Cu hum]
+31.3 +26.0 74 +47 +55 опасность
перегрева
1003.8 1003.6
08 12.08 Ю 2 15 км 3/3 600 м
[Cu hum]
+32.0 +25.9 70 +47 +58 опасность
перегрева
1003.7 1003.5
09 12.08 Ю 3
{5}
18 км 3/3 900 м
[Cu hum]
+32.2 +26.1 70 +48 +58 опасность
перегрева
1003.7 1003.5
10 12.08 Ю 3 20 км 3/3 600 м
[Cu hum]
+31.8 +26.2 72 +48 +59 опасность
перегрева
1003.8 1003.6
11 12.08 Ю 3 20 км 4/4 600 м
[Cu med, cong]
+32.1 +26.0 70 +48 +56 опасность
перегрева
1003.6 1003.4
12 12.08 ЮЗ 3
{7}
20 км 4/4 900 м
[Cu med, cong]
+32.8 +26.0 68 +49 +57 опасность
перегрева
1003.2 1003.0
13 12.08 В 1 20 км 4/4 600 м
[Cu med, cong]
+32.1 +25.6 69 +47 +55 опасность
перегрева
1002.9 1002.7
14 12.08 В 1 20 км 5/5 600 м
[Cu med, cong]
+32.8 +25.5 66 +48 +52 опасность
перегрева
1002.8 1002.6
15 12.08 С 2
{3}
20 км 8/5 900 м
[Cu med, cong Ac trans]
+31.8 +25.3 69 +46 +47 опасность
перегрева
1002.4 1002.2
16 12.08 С 1 10 км дымка 8/3 600 м
[Cu med, cong Ac trans]
+31.3 +26.0 74 +47 +47 опасность
перегрева
1002.3 1002.1
17 12.08 С 1 8000 м дымка 8/5 600 м
[Cu med, cong Ac und]
+30.6 +26.4 78 +47 +47 опасность
перегрева
1002.6 1002.4
18 12.08 В 1
{3}
8000 м дымка 6/4 900 м
[Cu med, cong Ac und]
+30.4 +26.6 80 +47 +47 опасность
перегрева
1002.8 1002.6 +33.8
06 13.08 С 1
{2}
20 км 3/3 1080 м
[Cu med, cong]
+30.6 +23.9 67 +42 +47 опасность
перегрева
1003.1 1002.9 +27.1
07 13.08 ЮВ 1 20 км 3/3 1000 м
[Cu hum]
+31.0 +25.4 72 +45 +54 опасность
перегрева
1003.5 1003.3
08 13.08 ЮВ 2 20 км 3/3 1000 м
[Cu med, cong]
+31.8 +26.2 72 +48 +58 опасность
перегрева
1003.9 1003.7
09 13.08 Ю 3
{6}
20 км 3/3 1050 м
[Cu med, cong]
+31.5 +25.9 72 +47 +57 опасность
перегрева
1004.2 1004.0
10 13.08 Ю 2 20 км 3/3 1000 м
[Cu med, cong]
+32.9 +25.8 66 +48 +61 опасность
перегрева
1004.3 1004.1
11 13.08 Ю 2 20 км 3/3 1000 м
[Cu med, cong]
+32.9 +26.3 68 +49 +61 опасность
перегрева
1004.1 1003.9
12 13.08 Ю 3
{6}
20 км 3/3 1050 м
[Cu med, cong]
+31.9 +25.8 70 +47 +55 опасность
перегрева
1003.7 1003.5
13 13.08 Ю 4 20 км 4/4 1000 м
[Cu med, cong]
+31.7 +25.4 69 +46 +50 опасность
перегрева
1003.9 1003.7
14 13.08 Ю 3 20 км 4/4 1000 м
[Cu med, cong]
+31.9 +25.4 69 +46 +50 опасность
перегрева
1003.8 1003.6
15 13.08 Ю 2
{6}
20 км 4/4 1080 м
[Cu med, cong]
+31.1 +25.1 70 +45 +46 опасность
перегрева
1003.8 1003.6
06 14.08 С 1
{3}
20 км ясно +30.4 +21.6 59 +38 +46 очень
душно
1006.3 1006.1 +26.7
07 14.08 В 1 20 км 3/3 1000 м
[Cu med, cong]
+31.2 +24.7 68 +44 +53 опасность
перегрева
1006.6 1006.4
08 14.08 Ю 2 20 км 3/3 1000 м
[Cu med, cong]
+31.7 +24.9 67 +45 +56 опасность
перегрева
1006.6 1006.4
09 14.08 Ю 3
{5}
20 км 3/3 1080 м
[Cu med, cong]
+32.6 +25.5 66 +47 +57 опасность
перегрева
1006.7 1006.5
10 14.08 Ю 4 20 км 3/3 600 м
[Cu med, cong]
+31.4 +24.9 68 +45 +54 опасность
перегрева
1006.7 1006.5
11 14.08 ЮЗ 3 20 км 1/1 1000 м
[Cu hum]
+32.7 +23.8 60 +44 +57 опасность
перегрева
1006.5 1006.3
12 14.08 ЮЗ 4
{8}
20 км 3/3 1080 м
[Cu hum]
+31.8 +22.9 59 +42 +49 опасность
перегрева
1006.3 1006.1
13 14.08 Ю 4 20 км 3/3 1000 м
[Cu med, cong]
+32.2 +23.6 61 +44 +48 опасность
перегрева
1005.9 1005.7
14 14.08 С 2 20 км 1/1 1000 м
[Cu hum]
+34.0 +23.5 54 +45 +51 опасность
перегрева
1005.7 1005.5
15 14.08 СЗ 2
{7}
20 км 1/1 1080 м
[Cu hum]
+32.2 +23.8 61 +44 +46 опасность
перегрева
1005.8 1005.6
06 15.08 С 1
{2}
20 км ясно +29.8 +19.9 55 +36 +44 очень
душно
1006.2 1006.0 +25.0
07 15.08 ЮВ 2 20 км ясно +29.7 +22.5 65 +39 +50 очень
душно
1006.1 1005.9
08 15.08 Ю 3 20 км ясно +31.3 +24.3 66 +43 +57 опасность
перегрева
1006.0 1005.8
09 15.08 Ю 3
{5}
20 км ясно +31.8 +23.5 62 +43 +57 опасность
перегрева
1006.0 1005.8
10 15.08 Ю 3 20 км 1/1 600 м
[Cu hum]
+32.7 +23.5 58 +43 +57 опасность
перегрева
1005.8 1005.6
11 15.08 Ю 3 20 км 1/1 1000 м
[Cu hum]
+33.2 +19.7 45 +39 +53 опасность
солнечного
удара
1005.5 1005.3
12 15.08 Ю 3
{6}
20 км 1/1 1080 м
[Cu hum]
+34.0 +18.9 41 +39 +51 опасность
солнечного
удара
1005.1 1004.9
13 15.08 ЮЗ 3 20 км 1/1 1000 м
[Cu hum]
+33.7 +17.8 39 +38 +45 очень
душно
1004.6 1004.4
14 15.08 Ю 3 20 км 1/1 1000 м
[Cu hum]
+33.8 +17.0 37 +37 +42 очень
душно
1004.4 1004.2
15 15.08 СЗ 1
{6}
20 км ясно +34.6 +17.7 37 +38 +41 очень
душно
1003.9 1003.7
06 16.08 СВ 1
{2}
20 км ясно +30.4 +20.4 55 +37 +45 очень
душно
1002.9 1002.7 +25.0
07 16.08 ЮВ 1 20 км ясно +29.7 +21.7 62 +38 +50 очень
душно
1003.0 1002.8
08 16.08 ЮВ 2 20 км ясно +31.0 +25.2 71 +45 +60 опасность
перегрева
1003.1 1002.9
09 16.08 ЮВ 2
{4}
20 км 1/1 1080 м
[Cu hum]
+33.0 +19.9 46 +39 +56 опасность
солнечного
удара
1002.8 1002.6
10 16.08 Ю 4 20 км 1/1 1000 м
[Cu hum]
+32.2 +22.4 56 +41 +54 опасность
перегрева
1002.7 1002.5
11 16.08 Ю 2 20 км 1/1 1000 м
[Cu hum]
+32.8 +23.0 56 +43 +58 опасность
перегрева
1002.7 1002.5
12 16.08 Ю 4
{7}
20 км 1/1 1080 м
[Cu hum]
+31.5 +23.7 63 +43 +52 опасность
перегрева
1002.3 1002.1
13 16.08 Ю 3 20 км 1/1 1000 м
[Cu hum]
+31.2 +23.7 64 +42 +50 опасность
перегрева
1002.4 1002.2
14 16.08 Ю 3 20 км 1/1 1000 м
[Cu hum]
+31.4 +23.1 61 +42 +46 опасность
перегрева
1002.3 1002.1
15 16.08 Ю 2
{7}
20 км 1/1 1080 м
[Cu hum]
+30.9 +24.2 68 +43 +45 опасность
перегрева
1002.0 1001.8

 

Местоположение метеостанции Finike (Турция): широта 36.30 долгота 30.15 высота над уровнем моря 2 м.

В архиве по умолчанию представлена погода в Finike за последнюю неделю. Архивные данные за месяц целиком и за предыдущие месяцы, начиная с января 2011 года, Вы можете получить, выбрав интересующий диапазон дат из раскрывающегося списка и нажав кнопку "Ввод!".

Внимание! Время в таблицах - всемирное. Для получения местного времени необходимо прибавить поправку, которая в Finike равна 2 ч.

Смотрите также архив погоды в соседних городах и на ближайших метеорологических станциях:

Погода в Kas (Турция) (46 км)
Погода в Antalya (Турция) (82 км)
Погода в Fethiye (Турция) (99 км)
Погода в Side (Турция) (122 км)
Погода в Dalaman (Турция) (130 км)
Погода в Burdur (Турция) (153 км)
Погода в Isparta (Турция) (165 км)
Погода в Alanya (Турция) (168 км)
Погода в Suleyman Demirel (Турция) (174 км)
Погода в Marmaris (Турция) (179 км)

Пояснения к столбцам:

Ветер - указаны скорость ветра в м/с - средняя за 10 мин, порывы в срок и между сроками (в фигурных скобках) и направление, откуда дует ветер: С - северный, СВ - северо-восточный, В - восточный, ЮВ - юго-восточный, Ю - южный, ЮЗ - юго-западный, З - западный, СЗ - северо-западный.
Видимость - горизонтальная дальность видимости в метрах или километрах. При видимости от 1 до 10 км при отсутствии осадков обычно наблюдается дымка, при ухудшении видимости до 1 км и менее - туман. В сухую погоду видимость может ухудшаться дымом, пылью или мглою.
Явления - указаны атмосферные явления, наблюдавшиеся в срок или в последний час перед сроком; фигурными скобками обозначены явления, наблюдавшиеся между сроками (за 1-3 часа до срока); квадратными скобками обозначены град или гололедные отложения с указанием их диаметра в мм.
Облачность - указаны через наклонную черту общая и нижняя облачность в баллах и высота нижней границы облаков в метрах; квадратными скобками обозначены формы облаков: Ci - перистые, Cs - перисто-слоистые, Cc - перисто-кучевые, Ac - высококучевые, As - высокослоистые, Sc - слоисто-кучевые, Ns - слоисто-дождевые, Cu - кучевые, Cb - кучево-дождевые. Подробнее классификацию облаков см. в Атласе облаков (PDF).
T - Температура воздуха - температура, измеренная на высоте 2 м над землей.
Td - Температура точки росы - температура, при понижении до которой содержащийся в воздухе водяной пар достигнет насыщения.
f - Относительная влажность воздуха - влажноcть воздуха, измеренная на высоте 2 м над землей.
Te - Эффективная температура - температура, которую ощущает одетый по сезону человек в тени. Характеристика душности погоды. При расчете учитывается влияние влажности воздуха и скорости ветра на теплоощущения человека.
Tes - Эффективная температура на солнце - температура, которую ощущает человек, с поправкой на солнечный нагрев. Характеристика знойности погоды. Зависит от высоты солнца над горизонтом, облачности и скорости ветра. Ночью, в пасмурную погоду, а также при ветре 12 м/с и более поправка равна нулю.
P - Атмосферное давление - приведенное к уровню моря атмосферное давление.
Po - Атмосферное давление - измеренное на уровне метеостанции атмосферное давление.
Tmin - Минимальная температура - минимум температуры воздуха на высоте 2 м над землей.
Tmax - Максимальная температура - максимум температуры воздуха на высоте 2 м над землей.
R - Количество осадков - Количество выпавших осадков за период времени, мм. При наведении курсора мыши на число - период времени, за который выпало указанное количество осадков.
R24 - Количество осадков - Количество выпавших осадков за 24 часа, мм.
S - Снежный покров - Высота снежного покрова, см. При наведении курсора мыши на число - состояние снежного покрова и степень покрытия местности в баллах.